Weather History for Minamitorishima, Japan

Change the Weather History Date:

Thursday, April 3, 2014

  Actual Average Record
Temperature  
Mean Temperature 74 °F -  
Max Temperature 77 °F - - ()
Min Temperature 71 °F - - ()
Cooling Degree Days 9    
Growing Degree Days 24 (Base 50)    
Moisture  
Dew Point 68 °F    
Average Humidity 79    
Maximum Humidity 90    
Minimum Humidity 69    
Precipitation  
Precipitation 0.00 in - - ()
Sea Level Pressure  
Sea Level Pressure 30.02 in    
Wind  
Wind Speed 20 mph ()    
Max Wind Speed 25 mph    
Max Gust Speed -    
T = Trace of Precipitation, MM = Missing Value Source: Averaged Metar Reports

Daily Weather History Graph

Daily Weather History Graph

Search for Another Location

Airport:

Trip Planner

Search our weather history database for the weather conditions in past years. The results will help you decide how hot, cold, wet, or windy it might be!

Date:

Astronomy

Apr. 03, 2014 Rise Set
Actual Time 5:34 AM ChST 6:00 PM ChST
Civil Twilight 5:11 AM ChST 6:23 PM ChST
Nautical Twilight 4:45 AM ChST 6:50 PM ChST
Astronomical Twilight 4:18 AM ChST 7:17 PM ChST
Moon 7:51 AM ChST (4/3) 9:21 PM ChST (4/3)
Length of Visible Light 13h 11m
Length of Day
12h 26m
Waxing Crescent, 13% of the Moon is Illuminated
Apr 3
Waxing Crescent
Apr 7
First Quarter
Apr 15
Full
Apr 22
Last Quarter
Apr 29
New

Hourly Weather History & Observations

Time (ChST) Temp. Dew Point Humidity Pressure Visibility Wind Dir Wind Speed Gust Speed Precip Events Conditions
12:00 AM 71 °F 65 °F 76% 30.03 in - East 25.3 mph - -  
1:00 AM 71 °F 65 °F 75% 30.04 in - East 24.2 mph - -  
2:00 AM 71 °F 66 °F 79% 30.01 in - East 23.0 mph - -  
3:00 AM 71 °F 66 °F 80% 30.01 in - East 24.2 mph - -  
4:00 AM 72 °F 66 °F 77% 30.01 in - East 23.0 mph - -  
5:00 AM 72 °F 66 °F 77% 30.02 in - East 21.9 mph - -  
6:00 AM 72 °F 67 °F 81% 30.02 in - East 23.0 mph - -  
7:00 AM 72 °F 68 °F 84% 30.03 in - East 23.0 mph - -  
8:00 AM 73 °F 68 °F 79% 30.04 in - ESE 24.2 mph - -  
9:00 AM 75 °F 68 °F 72% 30.06 in - ESE 23.0 mph - -  
10:00 AM 75 °F 68 °F 74% 30.06 in - ESE 23.0 mph - -  
11:00 AM 77 °F 69 °F 69% 30.04 in - ESE 20.7 mph - -  
12:00 PM 76 °F 68 °F 71% 30.02 in - ESE 23.0 mph - -  
1:00 PM 76 °F 69 °F 72% 30.00 in - ESE 21.9 mph - -  
2:00 PM 76 °F 69 °F 73% 29.99 in - ESE 23.0 mph - -  
3:00 PM 76 °F 69 °F 74% 29.98 in - SE 21.9 mph - -  
4:00 PM 74 °F 69 °F 80% 29.97 in - SE 24.2 mph - -  
5:00 PM 74 °F 70 °F 82% 29.99 in - ESE 21.9 mph - -  
6:00 PM 74 °F 70 °F 84% 30.00 in - ESE 19.6 mph - -  
7:00 PM 74 °F 70 °F 85% 30.01 in - ESE 19.6 mph - -  
8:00 PM 74 °F 70 °F 85% 30.02 in - ESE 19.6 mph - -  
9:00 PM 74 °F 71 °F 87% 30.04 in - SE 18.4 mph - -  
10:00 PM 74 °F 71 °F 88% 30.04 in - SE 17.3 mph - -  
11:00 PM 74 °F 72 °F 90% 30.03 in - SE 17.3 mph - -